Tracking 28091 objects as of 29-Sep-2023
HD Live streaming from Space Station
objects crossing your sky now

MARECS B2

Track MARECS B2 now!
MARECS B2 is classified as:


NORAD ID: 15386
Int'l Code: 1984-114B
Perigee: 36,584.2 km
Apogee: 37,529.1 km
Inclination: 14.7 °
Period: 1,501.1 minutes
Semi major axis: 43427 km
RCS: 3.0552 m2 (large)
Launch date: November 10, 1984
Source: European Space Agency (ESA)
Launch site: FRENCH GUIANA (FRGUI)
Your satellite tracking list
Your tracking list is empty




NASA's NSSDC Master Catalog

Two Line Element Set (TLE):
1 15386U 84114B   23271.98594273 -.00000229  00000-0  00000+0 0  9996
2 15386  14.6700 339.6421 0108788  32.4015 321.0694  0.95929772103142
Source of the keplerian elements: AFSPC